DW8297 Weather Reports


Display with metric or nautical units.
time (UTC)temp
F
wind
direction
speed
MPH
gust
MPH
rain 1hr
in
rain 24hr
in
rain mn
in
humidity
%
barometer
mb
20260504140404 -39 277 2.0 5.0 0.00 0.00 0.00 88 1018.1
20260504100328 -39 7 0.0 0.0 0.00 0.00 0.00 88 1019.2
20260504081743 -39 7 0.0 0.0 0.00 0.00 0.00 88 1019.1
20260504080231 -39 7 0.0 0.0 0.00 0.00 0.00 88 1019.0
20260504070150 -39 7 0.0 0.0 0.00 0.00 0.00 88 1019.1
20260504060142 -39 7 0.0 0.0 0.00 0.00 0.00 88 1019.1
20260504050133 -39 7 0.0 0.0 0.00 0.00 0.00 88 1019.1
20260504044630 -39 7 0.0 0.0 0.00 0.00 0.00 88 1019.0
20260504043129 -39 7 0.0 0.0 0.00 0.00 0.00 88 1018.7
20260504041628 -39 7 0.0 0.0 0.00 0.00 0.00 88 1018.6
20260504040129 -39 7 0.0 0.0 0.00 0.00 0.00 88 1018.6
20260504034622 -39 7 0.0 0.0 0.00 0.00 0.00 88 1018.5
20260504033118 -39 7 0.0 0.0 0.00 0.00 0.00 88 1018.4
20260504031615 -39 7 0.0 0.0 0.00 0.00 0.00 88 1018.4
20260504030839 -39 7 0.0 0.0 0.00 0.00 0.00 88 1018.3
20260504024557 -39 7 0.0 0.0 0.00 0.00 0.00 88 1018.4
20260504023054 -39 7 0.0 0.0 0.00 0.00 0.00 88 1018.4
20260504021548 -39 7 0.0 0.0 0.00 0.00 0.00 88 1018.4
20260504020044 -39 7 0.0 0.0 0.00 0.00 0.00 88 1018.3
20260504014545 -39 7 0.0 2.0 0.00 0.00 0.00 88 1018.2
20260504013750 -39 7 0.0 0.0 0.00 0.00 0.00 88 1018.1
20260504011512 -39 7 0.0 0.0 0.00 0.00 0.00 88 1017.8
20260504010005 -39 7 0.0 0.0 0.00 0.00 0.00 88 1017.7
20260504004502 -39 7 0.0 0.0 0.00 0.00 0.00 88 1017.5
20260504002954 -39 7 0.0 0.0 0.00 0.00 0.00 88 1017.2
20260504001447 -39 7 0.0 0.0 0.00 0.00 0.00 88 1017.1
20260503235941 -39 7 0.0 4.0 0.00 0.00 0.00 88 1017.0
20260503234435 -39 16 0.0 5.0 0.00 0.00 0.00 88 1016.9
20260503233656 -39 12 0.0 3.0 0.00 0.00 0.00 88 1016.8
20260503231415 -39 24 3.0 6.0 0.00 0.00 0.00 88 1016.7
20260503225912 -39 20 4.0 8.0 0.00 0.00 0.00 88 1016.6
20260503224410 -39 10 4.0 6.0 0.00 0.00 0.00 88 1016.6
20260503222910 -39 25 4.0 9.0 0.00 0.00 0.00 88 1016.7
20260503221410 -39 29 4.0 11.0 0.00 0.00 0.00 88 1016.7
20260503215910 -39 13 4.0 8.0 0.00 0.00 0.00 88 1016.7
20260503215143 -39 23 4.0 8.0 0.00 0.00 0.00 88 1016.6
20260503212911 -39 4 5.0 11.0 0.00 0.00 0.00 88 1016.5
20260503211411 -39 9 5.0 10.0 0.00 0.00 0.00 88 1016.6
20260503205910 -39 22 4.0 8.0 0.00 0.00 0.00 88 1016.6
20260503205142 -39 355 5.0 14.0 0.00 0.00 0.00 88 1016.7
20260503202911 -39 17 5.0 15.0 0.00 0.00 0.00 88 1016.8
20260503201411 -39 36 3.0 12.0 0.00 0.00 0.00 88 1017.1
20260503195908 -39 31 5.0 11.0 0.00 0.00 0.00 88 1017.1
20260503194408 -39 50 3.0 11.0 0.00 0.00 0.00 88 1017.1
20260503192907 -39 354 6.0 12.0 0.00 0.00 0.00 88 1017.3
20260503191409 -39 15 6.0 14.0 0.00 0.00 0.00 88 1017.4
20260503185908 -39 10 6.0 13.0 0.00 0.00 0.00 88 1017.5
20260503184407 -39 22 5.0 13.0 0.00 0.00 0.00 88 1017.7
20260503182908 -39 50 6.0 11.0 0.00 0.00 0.00 88 1017.7
20260503181405 -39 31 7.0 14.0 0.00 0.00 0.00 88 1018.0
20260503175906 -39 14 6.0 14.0 0.00 0.00 0.00 88 1018.0
20260503174406 -39 11 5.0 13.0 0.00 0.00 0.00 88 1017.8
20260503172903 -39 24 6.0 12.0 0.00 0.00 0.00 88 1018.2
20260503171404 -39 78 5.0 10.0 0.00 0.00 0.00 88 1018.2
20260503170633 -39 3 5.0 12.0 0.00 0.00 0.00 88 1018.2